Barrow, AK

8:02 AM AKST on February 06, 2016 (GMT -0900)
Nuiqsut

Weather History for PAQT - October, 2013

Change the Weather History Date:

Sunday, October 13, 2013

  Actual Average Record
Temperature  
Mean Temperature 20 °F -  
Max Temperature 30 °F - - ()
Min Temperature 10 °F - - ()
Degree Days  
Heating Degree Days 45    
Moisture  
Dew Point 21 °F    
Average Humidity 97    
Maximum Humidity 100    
Minimum Humidity 91    
Precipitation  
Precipitation 0.00 in - - ()
Sea Level Pressure  
Sea Level Pressure 29.66 in    
Wind  
Wind Speed 6 mph (ENE)    
Max Wind Speed 23 mph    
Max Gust Speed 29 mph    
Visibility 8 miles    
Events      
T = Trace of Precipitation, MM = Missing Value Source: NWS Daily Summary

Daily Weather History Graph

Daily Weather History Graph

Search for Another Location

Airport or City:

Trip Planner

Search our weather history database for the weather conditions in past years. The results will help you decide how hot, cold, wet, or windy it might be!

Date:

Astronomy

Oct. 13, 2013 Rise Set
Actual Time 9:11 AM AKDT 6:26 PM AKDT
Civil Twilight 8:08 AM AKDT 7:30 PM AKDT
Nautical Twilight 6:56 AM AKDT 8:40 PM AKDT
Astronomical Twilight 5:41 AM AKDT 9:55 PM AKDT
Moon 5:54 PM AKDT (10/13) 12:32 AM AKDT (10/13)
Length of Visible Light 11h 21m
Length of Day
9h 15m
Waxing Gibbous, 71% of the Moon is Illuminated
Oct 13
Waxing Gibbous
Oct 18
Full
Oct 26
Last Quarter
Nov 3
New
Nov 9
First Quarter

Hourly Weather History & Observations

Time (AKDT) Temp. Windchill Dew Point Humidity Pressure Visibility Wind Dir Wind Speed Gust Speed Precip Events Conditions
12:17 AM 10.4 °F - 10.4 °F 100% 29.83 in 1.5 mi Calm Calm - 0.00 in   Clear
12:22 AM 10.4 °F - 10.4 °F 100% 29.82 in 3.0 mi Calm Calm - 0.00 in   Clear
12:53 AM 12.9 °F - 12.0 °F 96% 29.83 in 8.0 mi Calm Calm - 0.00 in   Clear
1:53 AM 10.9 °F - 10.9 °F 100% 29.83 in 10.0 mi Calm Calm - 0.00 in   Clear
2:53 AM 14.0 °F - 12.9 °F 95% 29.83 in 10.0 mi Calm Calm - 0.00 in   Clear
3:53 AM 15.1 °F - 12.9 °F 91% 29.82 in 10.0 mi Calm Calm - 0.00 in   Clear
4:51 AM 12.2 °F - 12.2 °F 100% 29.80 in 10.0 mi Calm Calm - 0.00 in   Partly Cloudy
4:53 AM 12.9 °F - 10.9 °F 92% 29.81 in 10.0 mi Calm Calm - 0.00 in   Partly Cloudy
5:53 AM 15.1 °F - 14.0 °F 95% 29.80 in 10.0 mi Calm Calm - N/A   Clear
6:53 AM 15.1 °F - 14.0 °F 95% 29.79 in 10.0 mi Calm Calm - 0.00 in   Scattered Clouds
7:53 AM 17.1 °F 7.6 °F 16.0 °F 96% 29.78 in 10.0 mi NE 6.9 mph - 0.00 in   Partly Cloudy
8:53 AM 17.1 °F 7.6 °F 16.0 °F 96% 29.76 in 10.0 mi NE 6.9 mph - N/A   Clear
9:53 AM 19.0 °F 8.2 °F 18.0 °F 96% 29.74 in 10.0 mi ENE 9.2 mph - 0.00 in   Clear
10:53 AM 21.0 °F 10.6 °F 19.9 °F 96% 29.73 in 10.0 mi East 9.2 mph - N/A   Partly Cloudy
11:53 AM 24.1 °F 12.0 °F 23.0 °F 96% 29.71 in 10.0 mi East 13.8 mph - N/A   Partly Cloudy
12:53 PM 25.0 °F 13.1 °F 24.1 °F 96% 29.68 in 10.0 mi ENE 13.8 mph - N/A   Scattered Clouds
1:53 PM 27.0 °F 15.2 °F 26.1 °F 96% 29.65 in 10.0 mi East 15.0 mph - N/A   Clear
2:53 PM 28.9 °F 17.7 °F 27.0 °F 92% 29.64 in 10.0 mi East 15.0 mph - N/A   Clear
3:53 PM 28.0 °F 14.9 °F 26.1 °F 92% 29.60 in 10.0 mi ENE 19.6 mph - N/A   Clear
4:13 PM 28.4 °F 16.2 °F 26.6 °F 93% 29.58 in 10.0 mi ENE 17.3 mph - N/A   Scattered Clouds
4:23 PM 28.4 °F 15.1 °F 26.6 °F 93% 29.58 in 10.0 mi ENE 20.7 mph - N/A   Mostly Cloudy
4:53 PM 28.9 °F 16.5 °F 28.0 °F 96% 29.57 in 10.0 mi East 18.4 mph 26.5 mph N/A   Overcast
5:53 PM 28.0 °F 13.9 °F 28.0 °F 100% 29.55 in 9.0 mi ENE 23.0 mph 28.8 mph N/A   Overcast
6:53 PM 28.9 °F 16.1 °F 28.0 °F 96% 29.54 in 8.0 mi East 19.6 mph - N/A   Overcast
7:35 PM 28.4 °F 14.7 °F 28.4 °F 100% 29.50 in 5.0 mi ENE 21.9 mph - N/A   Overcast
7:53 PM 28.9 °F 16.1 °F 28.9 °F 100% 29.49 in 5.0 mi ENE 19.6 mph - N/A   Overcast
8:53 PM 30.0 °F 18.3 °F 30.0 °F 100% 29.46 in 5.0 mi ENE 17.3 mph - N/A   Overcast
9:53 PM 30.0 °F 20.5 °F 30.0 °F 100% 29.44 in 5.0 mi ENE 11.5 mph - N/A   Overcast
10:53 PM 30.0 °F 21.7 °F 30.0 °F 100% 29.40 in 5.0 mi ENE 9.2 mph - N/A   Overcast
11:53 PM 30.0 °F 23.2 °F 30.0 °F 100% 29.38 in 4.0 mi ENE 6.9 mph - N/A   Overcast